Regional Weather Roundup
Issued by NWS

Current Version | Previous Version | Text Only | Print | Product List | Glossary On
Versions: 1 2 3 4 5 6 7 8 9 10 11 12 13 14 15 16 17 18 19 20 21 22 23 24 25 26 27 28 29 30 31 32 33 34 35 36 37 38 39 40 41 42 43 44 45 46 47 48 49 50
000
ASUS45 KABQ 301810
RWRNM
WEATHER ROUNDUP FOR NEW MEXICO
NATIONAL WEATHER SERVICE ALBUQUERQUE NM
1200 PM MDT TUE SEP 30 2014

NOTE: "FAIR" MEANS FEW OR NO CLOUDS BELOW 12,000 FEET AGL WITH NO
       SIGNIFICANT WEATHER OR OBSTRUCTIONS TO VISION.

      THIS PRODUCT IS RELEASED AS TWO VERSIONS.  ONE VERSION NEAR
      THE TOP OF THE HOUR CONTAINING PRELIMINARY DATA FROM ALBUQUERQUE
      AND OTHER STATIONS.  A FINAL VERSION WITH ADDITIONAL DATA IS
      ISSUED ABOUT 10 MINUTES AFTER THE HOUR.

NMZ501-503-504-510>518-301900-
NORTHWEST PLATEAU/NORTHCENTRAL MOUNTAINS

CITY           SKY/WX    TMP DP  RH WIND       PRES   REMARKS
FARMINGTON     SUNNY     60  41  49 VRB5      30.04F
6HR MIN TEMP:  40; 6HR MAX TEMP:  60;

LOS ALAMOS     SUNNY     56  32  40 SE8       30.08F
SANTA FE       SUNNY     65  29  25 W9        30.03F
6HR MIN TEMP:  42; 6HR MAX TEMP:  65;

TAOS           SUNNY     55  34  44 SW9       30.07F
ANGEL FIRE     FAIR      53  29  40 W17G25    30.10F

$$
NMZ402-403-502-505>509-301900-
WESTCENTRAL MOUNTAINS/SOUTHWEST MOUNTAINS

CITY           SKY/WX    TMP DP  RH WIND       PRES   REMARKS
GALLUP         SUNNY     61  37  41 SW9       30.08F
6HR MIN TEMP:  35; 6HR MAX TEMP:  61;

GRANTS         SUNNY     63  30  29 CALM      30.08F
SILVER CITY    SUNNY     70  30  23 N8G18     30.06F

$$
NMZ407-409-411-412-301900-
SOUTHERN DESERTS

CITY           SKY/WX    TMP DP  RH WIND       PRES   REMARKS
LORDSBURG      FAIR      73  37  27 MISG      30.00F
DEMING         SUNNY     75  46  35 W12G20    29.99F
6HR MIN TEMP:  54; 6HR MAX TEMP:  76;

LAS CRUCES     SUNNY     76  43  31 W13G21    30.00F
HOLLOMAN AFB   SUNNY     78  40  25 S6        29.94F
ALAMOGORDO     SUNNY     77  41  27 S10       29.97F
T OR C         SUNNY     71  38  29 CALM      29.99F
6HR MIN TEMP:  53; 6HR MAX TEMP:  71;


$$
NMZ519>523-301900-
CENTRAL VALLEYS/CENTRAL HIGHLANDS

CITY           SKY/WX    TMP DP  RH WIND       PRES   REMARKS
ALBUQUERQUE    SUNNY     65  31  28 VRB3      30.03F
6HR MIN TEMP:  46; 6HR MAX TEMP:  65;

DOUBLE EAGLE   SUNNY     64  30  27 VRB6      30.05F
MORIARTY ARPT  FAIR      67  29  24 W12       30.04F
CLINES CORNERS SUNNY     62  30  29 NW20G25   30.04F
6HR MIN TEMP:  41; 6HR MAX TEMP:  62;

BELEN          FAIR      68  33  28 SW9       30.02F
6HR MIN TEMP:  44; 6HR MAX TEMP:  68;

SOCORRO        FAIR      69  35  28 CALM      30.00F
6HR MIN TEMP:  50; 6HR MAX TEMP:  69;


$$
NMZ524>526-539-540-301900-
SOUTHCENTRAL MOUNTAINS

CITY           SKY/WX    TMP DP  RH WIND       PRES   REMARKS
RUIDOSO        NOT AVBL

$$
NMZ527>531-301900-
NORTHEAST HIGHLANDS/NORTHEAST PLAINS

CITY           SKY/WX    TMP DP  RH WIND       PRES   REMARKS
LAS VEGAS      SUNNY     64  31  28 E5        30.00F
6HR MIN TEMP:  41; 6HR MAX TEMP:  64;

RATON          SUNNY     65  27  23 SE5       29.93F
6HR MIN TEMP:  40; 6HR MAX TEMP:  66;

CLAYTON        SUNNY     69  35  28 NE8       29.89F
6HR MIN TEMP:  45; 6HR MAX TEMP:  69;


$$
NMZ532>537-301900-
EASTCENTRAL PLAINS

CITY           SKY/WX    TMP DP  RH WIND       PRES   REMARKS
TUCUMCARI      SUNNY     76  39  26 W16       29.87F
6HR MIN TEMP:  55; 6HR MAX TEMP:  76;

CANNON AFB     SUNNY     75  38  26 W16G23    29.93F
6HR MIN TEMP:  55; 6HR MAX TEMP:  75;

CLOVIS AIRPORT   N/A     75  41  29 W10G18    29.94F

$$
NMZ028-029-538-301900-
SOUTHEAST PLAINS

CITY           SKY/WX    TMP DP  RH WIND       PRES   REMARKS
ROSWELL        SUNNY     78  41  26 NE5       29.91F
6HR MIN TEMP:  59; 6HR MAX TEMP:  78;

CARLSBAD       SUNNY     81  54  39 CALM      29.89F
6HR MIN TEMP:  60; 6HR MAX TEMP:  81;

HOBBS          SUNNY     81  61  50 SW8       29.92F


$$



USA.gov is the U.S. government's official web portal to all federal, state and local government web resources and services.